This is the latest recevied weather packets stored in our database for station/object SR9WXGR. If no packets are shown the sender has not sent any weather packets the latest 10 day(s).
| Time | Temp. | Humidity | Pressure | Rain* | Wind** | Luminosity | Snow |
|---|---|---|---|---|---|---|---|
| 1777581301 | 10° C | 26% | 987 hPa | - | - | - | - |
| 1777577701 | 10° C | 25% | 987 hPa | - | - | - | - |
| 1777574100 | 11.67° C | 23% | 987 hPa | - | - | - | - |
| 1777566901 | 16.67° C | 19% | 986 hPa | - | - | - | - |
| 1777563301 | 16.67° C | 20% | 987 hPa | - | - | - | - |
| 1777559701 | 15.56° C | 22% | 987 hPa | - | - | - | - |
| 1777556102 | 13.89° C | 25% | 987 hPa | - | - | - | - |
| 1777552501 | 10.56° C | 27% | 988 hPa | - | - | - | - |
| 1777548901 | 10° C | 29% | 989 hPa | - | - | - | - |
| 1777545300 | 10° C | 30% | 989 hPa | - | - | - | - |
| 1777541701 | 7.78° C | 30% | 989 hPa | - | - | - | - |
| 1777538101 | 6.67° C | 33% | 990 hPa | - | - | - | - |
| 1777534501 | 5.56° C | 36% | 990 hPa | - | - | - | - |
| 1777530902 | 3.89° C | 43% | 990 hPa | - | - | - | - |
| 1777527304 | 1.67° C | 53% | 990 hPa | - | - | - | - |
| 1777520101 | 0° C | 57% | 990 hPa | - | - | - | - |
| 1777516501 | 0° C | 55% | 989 hPa | - | - | - | - |
| 1777512901 | 0.56° C | 51% | 989 hPa | - | - | - | - |
| 1777509300 | 0.56° C | 48% | 989 hPa | - | - | - | - |
| 1777505702 | 1.67° C | 44% | 989 hPa | - | - | - | - |
| 1777502101 | 2.78° C | 41% | 989 hPa | - | - | - | - |
| 1777498501 | 3.89° C | 38% | 989 hPa | - | - | - | - |
| 1777494901 | 5° C | 36% | 988 hPa | - | - | - | - |
| 1777491301 | 5° C | 34% | 988 hPa | - | - | - | - |
| 1777487702 | 5.56° C | 33% | 987 hPa | - | - | - | - |
* Rain since midnight (hover to see other rain measurements)
** Current wind speed in m/s (hover to see current wind gust speed)